Content
SEND FEEDBACK

Daily
Averages
Monthly
Summary
United States of America

MANNINGTON, WEST VIRGINIA


Home > North America > United States > West Virginia
Elevation: 98 feet     Latitude: 39 33N     Longitude: 080 21W

WEATHER
 
SELECT A DAY
Number of Records: 200,914;   Date Range: 1/1/95 - 7/29/14
 
SHARE

PRINT THIS DATA

[ ← Previous Day ]
WEATHER ALMANAC - FEBRUARY 13, 2013
[ Next Day → ]
[ °C ]   °F
Weather ElementAverageHighLow
Temperature34.1 °F45 °F (1:53 pm)28 °F (2:53 am)
Dewpoint28 °F32 °F (5:32 pm)21.9 °F (2:53 am)
Humidity79.7 %96 % (5:53 pm)49 % (2:53 pm)
Barometer29.76 in29.89 in (1:53 am)29.62 in (2:53 pm)
Wind Speed4.9 mph15 mph (4:20 pm)
Wind Gust19.6 mph (11:13 pm)
Weather ElementAverage
Visibility7 mi
Wind DirectionSSE (161.2 °)

Weather ElementTotal
Precipitation0.14 in
Heating Degree Days28.5 (Base 65)
Averaged from 33 records on February 13, 2013
WEATHER CONDITIONS BREAKOUT
WIND DIRECTION BREAKOUT
WEATHER BY HOUR - FEBRUARY 13, 2013
[ °C ]   °F
Local TimeTemperatureDewpointHumidityBarometerVisibilityWind DirectionWind SpeedGust SpeedPrecipitationEventsConditions
1:53 AM28.9 °F23.0 °F78 %29.89 in10.0 miCalmClear
2:53 AM28.0 °F21.9 °F78 %29.87 in10.0 miCalmClear
3:53 AM28.0 °F21.9 °F78 %29.86 in10.0 miCalmClear
4:53 AM28.9 °F23.0 °F78 %29.85 in10.0 miCalmMostly Cloudy
5:53 AM28.9 °F23.0 °F78 %29.82 in10.0 miCalmMostly Cloudy
6:53 AM28.9 °F24.1 °F82 %29.80 in10.0 miCalmOvercast
7:53 AM30.0 °F25.0 °F82 %29.77 in10.0 miCalmOvercast
8:53 AM32.0 °F25.0 °F75 %29.77 in10.0 miCalmMostly Cloudy
9:53 AM35.1 °F26.1 °F70 %29.74 in10.0 miCalmOvercast
10:53 AM39.0 °F25.0 °F57 %29.72 in10.0 miCalmOvercast
11:53 AM41.0 °F27.0 °F57 %29.70 in10.0 miNorth (10°)5.8 mphOvercast
12:53 PM42.1 °F26.1 °F53 %29.67 in10.0 miNorth (10°)5.8 mphOvercast
1:53 PM45.0 °F28.9 °F53 %29.64 in10.0 miNNE (30°)9.2 mphMostly Cloudy
2:53 PM44.1 °F26.1 °F49 %29.62 in10.0 miNorth (10°)10.4 mphOvercast
3:53 PM41.0 °F28.0 °F60 %29.64 in10.0 miNNW (340°)9.2 mph0.00 inRainLight Rain
4:20 PM37.4 °F30.2 °F75 %29.65 in10.0 miNW (310°)15.0 mph0.00 inRainLight Rain
4:53 PM35.1 °F30.9 °F85 %29.69 in2.0 miNNW (330°)9.2 mph0.02 inSnowLight Snow
4:58 PM33.8 °F30.2 °F87 %29.68 in1.8 miNW (320°)10.4 mph0.00 inSnowLight Snow
5:14 PM33.8 °F30.2 °F87 %29.68 in1.2 miNNW (330°)5.8 mph0.02 inSnowLight Snow
5:32 PM33.8 °F32.0 °F93 %29.69 in1.0 miNW (310°)3.5 mph0.03 inSnowLight Snow
5:53 PM33.1 °F32.0 °F96 %29.72 in1.2 miWNW (290°)3.5 mph0.03 inSnowLight Snow
6:53 PM33.1 °F30.9 °F92 %29.76 in1.5 miWest (280°)4.6 mph0.02 inSnowLight Snow
7:00 PM33.8 °F32.0 °F93 %29.74 in2.5 miWest (280°)4.6 mph0.00 inSnowLight Snow
7:07 PM33.8 °F32.0 °F93 %29.75 in3.0 miWest (270°)3.5 mph0.00 inSnowLight Snow
7:32 PM33.8 °F32.0 °F93 %29.76 in2.5 miCalm0.01 inSnowLight Snow
7:53 PM33.1 °F32.0 °F96 %29.78 in3.0 miWest (270°)4.6 mph0.01 inSnowLight Snow
8:43 PM33.8 °F30.2 °F87 %29.79 in6.0 miWest (280°)5.8 mph0.00 inOvercast
8:50 PM33.8 °F30.2 °F87 %29.79 in5.0 miWest (260°)4.6 mph0.00 inSnowLight Snow
8:53 PM33.1 °F30.9 °F92 %29.81 in4.0 miWest (270°)4.6 mph0.00 inSnowLight Snow
9:53 PM33.1 °F30.0 °F89 %29.84 in8.0 miWest (280°)9.2 mph0.00 inOvercast
10:53 PM33.1 °F28.9 °F85 %29.85 in9.0 miWest (270°)10.4 mph0.00 inOvercast
11:13 PM32.0 °F28.4 °F87 %29.85 in10.0 miWNW (290°)13.8 mph19.6 mphOvercast
11:53 PM32.0 °F28.0 °F85 %29.88 in9.0 miWest (280°)8.1 mphOvercast
Hourly data recorded from KCKB, located miles away from Mannington, West Virginia







STORIES FROM OUR PARTNERS